K6OUA-11 Weather Reports


Display with metric or nautical units.
time (UTC)temp
F
wind
direction
speed
MPH
gust
MPH
rain 1hr
in
rain 24hr
in
rain mn
in
humidity
%
barometer
mb
20190216171517 50 126 2.0 4.0 0.00 0.00 0.00 96 1014.3
20190216171216 50 135 3.0 4.0 0.00 0.00 0.00 97 1014.3
20190216170915 49 132 2.0 4.0 0.00 0.00 0.00 98 1014.2
20190216170314 48 128 3.0 4.0 0.00 0.00 0.00 99 1014.3
20190216170011 48 166 3.0 4.0 0.00 0.00 0.00 99 1014.3
20190216165409 47 85 3.0 6.0 0.00 0.00 0.00 99 1014.4
20190216165108 47 90 4.0 5.0 0.00 0.00 0.00 100 1014.3
20190216164817 46 126 3.0 4.0 0.00 0.00 0.00 100 1014.4
20190216164815 46 90 4.0 4.0 0.00 0.00 0.00 100 1014.5
20190216164807 46 94 3.0 5.0 0.00 0.00 0.00 100 1014.3
20190216164506 46 126 3.0 4.0 0.00 0.00 0.00 100 1014.4
20190216164205 46 90 4.0 4.0 0.00 0.00 0.00 100 1014.5
20190216163904 45 123 4.0 4.0 0.00 0.00 0.00 100 1014.6
20190216163302 44 92 5.0 5.0 0.00 0.00 0.00 100 1014.2
20190216163000 44 90 4.0 4.0 0.00 0.00 0.00 100 1014.2
20190216162659 44 81 2.0 4.0 0.00 0.00 0.00 100 1014.3
20190216162358 44 90 3.0 5.0 0.00 0.00 0.00 100 1014.3
20190216162057 43 65 2.0 5.0 0.00 0.00 0.00 100 1014.3
20190216161455 42 114 4.0 4.0 0.00 0.00 0.00 100 1014.2
20190216161154 42 112 3.0 4.0 0.00 0.00 0.00 100 1014.2
20190216160853 42 108 3.0 4.0 0.00 0.00 0.00 100 1014.5
20190216160552 41 123 3.0 4.0 0.00 0.00 0.00 100 1014.5
20190216160250 41 92 4.0 5.0 0.00 0.00 0.00 100 1014.4
20190216155949 40 87 4.0 5.0 0.00 0.00 0.00 100 1014.2
20190216155648 40 90 4.0 4.0 0.00 0.00 0.00 100 1014.1
20190216155347 40 105 4.0 5.0 0.00 0.00 0.00 100 1014.0
20190216155046 40 126 2.0 5.0 0.00 0.00 0.00 100 1013.8
20190216154745 39 90 5.0 5.0 0.00 0.00 0.00 100 1013.8
20190216154444 39 90 4.0 6.0 0.00 0.00 0.00 100 1013.8
20190216153540 39 92 4.0 6.0 0.00 0.00 0.00 100 1013.9
20190216153241 38 90 4.0 5.0 0.00 0.00 0.13 100 1013.9
20190216152938 38 101 4.0 5.0 0.00 0.00 0.13 100 1014.1
20190216152638 38 90 4.0 5.0 0.00 0.00 0.13 100 1013.8
20190216152036 38 90 3.0 7.0 0.00 0.00 0.13 100 1013.9
20190216151734 38 90 7.0 7.0 0.00 0.00 0.13 100 1013.9
20190216151434 37 85 6.0 6.0 0.00 0.00 0.13 100 1013.8
20190216151132 37 90 2.0 4.0 0.00 0.00 0.13 100 1013.9
20190216150830 37 90 4.0 6.0 0.00 0.00 0.13 100 1013.9
20190216150529 37 90 5.0 6.0 0.00 0.00 0.13 100 1013.8
20190216150228 37 69 3.0 4.0 0.00 0.00 0.13 100 1013.6
20190216145927 37 72 3.0 5.0 0.00 0.00 0.13 100 1013.8
20190216145626 36 90 3.0 5.0 0.00 0.00 0.13 100 1013.7
20190216145325 36 108 3.0 4.0 0.00 0.00 0.13 100 1013.7
20190216145024 36 90 3.0 5.0 0.00 0.00 0.13 100 1013.8
20190216144422 36 90 3.0 5.0 0.00 0.00 0.13 100 1013.6
20190216144120 36 90 4.0 5.0 0.00 0.00 0.13 100 1013.7
20190216143819 36 90 4.0 4.0 0.00 0.00 0.13 100 1013.5
20190216143518 36 94 2.0 4.0 0.00 0.00 0.13 100 1013.6
20190216143217 36 90 3.0 5.0 0.00 0.00 0.13 100 1013.4
20190216142916 36 90 3.0 5.0 0.00 0.00 0.13 100 1013.5
20190216142615 36 90 3.0 5.0 0.00 0.00 0.13 100 1013.6
20190216142314 36 87 4.0 5.0 0.00 0.00 0.13 100 1013.5
20190216142013 36 90 5.0 5.0 0.00 0.00 0.13 100 1013.3
20190216141712 36 74 3.0 6.0 0.00 0.00 0.13 100 1013.3
20190216141410 36 90 5.0 6.0 0.00 0.00 0.13 100 1013.5
20190216141109 36 90 4.0 6.0 0.00 0.00 0.13 100 1013.3
20190216140932 36 85 5.0 5.0 0.00 0.00 0.13 100 1013.3
20190216140808 36 85 5.0 5.0 0.00 0.00 0.13 100 1013.3
20190216140507 36 67 3.0 6.0 0.00 0.00 0.13 100 1013.3
20190216140206 36 90 4.0 5.0 0.00 0.00 0.13 100 1013.2
20190216135905 36 87 3.0 3.0 0.00 0.00 0.13 100 1013.3
20190216135604 36 135 1.0 3.0 0.00 0.00 0.13 100 1013.4
20190216135002 37 29 3.0 3.0 0.00 0.00 0.13 100 1013.3
20190216134704 37 70 2.0 2.0 0.00 0.00 0.13 100 1013.4
20190216134700 37 70 2.0 2.0 0.00 0.00 0.13 100 1013.4
20190216134434 36 90 1.0 2.0 0.00 0.00 0.13 100 1013.3
20190216134359 36 90 1.0 2.0 0.00 0.00 0.13 100 1013.3
20190216133757 36 90 2.0 4.0 0.00 0.00 0.13 100 1013.3
20190216133456 36 63 2.0 4.0 0.00 0.00 0.13 100 1013.3
20190216132854 37 90 2.0 3.0 0.00 0.00 0.13 100 1013.1
20190216132553 37 67 1.0 3.0 0.00 0.00 0.13 100 1012.9
20190216132252 37 90 1.0 2.0 0.00 0.00 0.13 100 1012.9
20190216131649 37 90 1.0 3.0 0.00 0.00 0.13 100 1013.0
20190216131348 37 108 2.0 2.0 0.00 0.00 0.13 100 1012.8
20190216131047 37 135 1.0 1.0 0.00 0.00 0.13 100 1012.8
20190216130445 38 56 3.0 3.0 0.00 0.00 0.13 100 1012.7
20190216130144 38 22 2.0 3.0 0.00 0.00 0.13 100 1012.6
20190216125843 38 47 2.0 3.0 0.00 0.00 0.13 100 1012.6
20190216125542 38 346 1.0 3.0 0.00 0.00 0.13 100 1012.7
20190216125241 38 22 1.0 2.0 0.00 0.00 0.13 100 1012.8
20190216124940 38 90 1.0 3.0 0.00 0.00 0.13 100 1012.7
20190216124638 38 60 2.0 5.0 0.00 0.00 0.13 100 1012.6
20190216124337 38 90 4.0 5.0 0.00 0.00 0.13 100 1012.8
20190216124036 38 90 3.0 4.0 0.00 0.00 0.13 100 1012.6
20190216123735 38 90 3.0 3.0 0.00 0.00 0.13 100 1012.5
20190216123435 38 126 3.0 3.0 0.00 0.00 0.13 100 1012.4
20190216123133 38 90 1.0 2.0 0.00 0.00 0.13 100 1012.5
20190216122531 38 90 1.0 3.0 0.00 0.00 0.13 100 1012.4
20190216122230 38 90 2.0 4.0 0.00 0.00 0.13 100 1012.2
20190216121929 38 90 3.0 4.0 0.00 0.00 0.13 100 1012.1
20190216121627 38 96 2.0 3.0 0.00 0.00 0.13 100 1012.1
20190216121326 38 90 3.0 3.0 0.00 0.00 0.13 100 1012.1
20190216121025 38 70 2.0 4.0 0.00 0.00 0.13 100 1012.0
20190216120724 38 92 3.0 4.0 0.00 0.00 0.13 100 1011.9
20190216120423 38 135 1.0 2.0 0.00 0.00 0.13 100 1011.8
20190216120122 38 135 1.0 1.0 0.00 0.00 0.13 100 1011.8
20190216115821 38 90 1.0 2.0 0.00 0.00 0.13 100 1011.8
20190216115520 38 103 2.0 2.0 0.00 0.00 0.13 100 1011.7
20190216115219 38 135 1.0 2.0 0.00 0.00 0.13 100 1011.7
20190216114919 38 90 2.0 2.0 0.00 0.00 0.13 100 1011.8
20190216114917 38 90 2.0 2.0 0.00 0.00 0.13 100 1011.8
20190216114616 38 135 0.0 1.0 0.00 0.00 0.13 100 1011.8
20190216114316 38 67 0.0 3.0 0.00 0.00 0.13 100 1011.8
20190216114014 38 67 1.0 3.0 0.00 0.00 0.13 100 1011.8
20190216113713 38 0 0.0 0.0 0.00 0.00 0.13 100 1011.8
20190216113415 38 0 0.0 1.0 0.00 0.00 0.13 100 1011.7
20190216113412 38 0 0.0 1.0 0.00 0.00 0.13 100 1011.7
20190216113111 38 0 0.0 1.0 0.00 0.00 0.13 100 1011.7
20190216112510 38 0 1.0 1.0 0.00 0.00 0.13 100 1011.7
20190216112208 39 0 0.0 2.0 0.00 0.00 0.13 100 1011.8
20190216111906 39 0 1.0 2.0 0.00 0.00 0.13 100 1011.8
20190216111304 39 130 1.0 1.0 0.00 0.00 0.13 100 1011.8
20190216111003 39 135 0.0 1.0 0.00 0.00 0.13 100 1011.9
20190216110702 39 135 1.0 1.0 0.00 0.00 0.13 100 1012.0
20190216110100 39 135 0.0 1.0 0.00 0.00 0.13 100 1012.0
20190216105758 39 135 0.0 1.0 0.00 0.00 0.13 100 1012.0
20190216105457 40 0 0.0 0.0 0.00 0.00 0.13 100 1012.1
20190216104855 40 0 2.0 3.0 0.00 0.00 0.13 100 1012.0
20190216104554 40 45 1.0 1.0 0.00 0.00 0.13 100 1012.0
20190216104351 40 45 1.0 2.0 0.00 0.00 0.13 100 1012.0
20190216104253 40 45 1.0 2.0 0.00 0.00 0.13 100 1012.0
20190216103646 40 270 1.0 2.0 0.00 0.00 0.13 100 1012.2
20190216103345 40 225 1.0 1.0 0.00 0.00 0.13 100 1012.1
20190216103044 40 0 1.0 2.0 0.00 0.00 0.13 100 1012.0
20190216102742 40 0 1.0 2.0 0.00 0.00 0.13 100 1011.9
20190216102441 40 0 1.0 2.0 0.00 0.00 0.13 100 1012.1
20190216102140 41 0 1.0 2.0 0.00 0.00 0.13 100 1012.1
20190216101839 41 0 0.0 0.0 0.00 0.00 0.13 100 1012.1
20190216101538 41 0 0.0 2.0 0.00 0.00 0.13 100 1011.9
20190216101237 41 22 1.0 2.0 0.00 0.00 0.13 100 1012.0
20190216100936 41 0 2.0 2.0 0.00 0.00 0.13 100 1012.0
20190216100635 41 0 1.0 1.0 0.00 0.00 0.13 100 1012.1
20190216100334 41 0 0.0 1.0 0.00 0.00 0.13 100 1012.1
20190216100033 41 0 1.0 1.0 0.00 0.00 0.13 100 1011.8
20190216095731 41 0 0.0 1.0 0.00 0.00 0.13 100 1012.0
20190216095430 41 0 0.0 1.0 0.00 0.00 0.13 100 1011.9
20190216094828 42 0 1.0 2.0 0.00 0.00 0.13 100 1011.9
20190216094527 42 18 0.0 1.0 0.00 0.00 0.13 100 1011.9
20190216094226 42 90 0.0 3.0 0.00 0.00 0.13 100 1011.9
20190216093925 42 90 2.0 3.0 0.00 0.00 0.13 100 1011.8
20190216093624 42 90 1.0 3.0 0.00 0.00 0.13 100 1012.0
20190216093323 42 90 1.0 3.0 0.00 0.00 0.13 100 1011.9
20190216093021 42 135 2.0 3.0 0.00 0.00 0.13 100 1011.7
20190216092419 42 90 2.0 3.0 0.00 0.00 0.13 100 1011.7
20190216092118 42 24 2.0 3.0 0.00 0.00 0.13 100 1011.9
20190216091817 42 42 2.0 3.0 0.00 0.00 0.13 100 1011.8
20190216091516 42 25 4.0 4.0 0.00 0.00 0.12 100 1012.0
20190216091215 42 42 3.0 3.0 0.00 0.00 0.12 100 1011.9
20190216090914 42 9 2.0 2.0 0.00 0.00 0.12 100 1011.9
20190216090613 42 20 1.0 2.0 0.00 0.00 0.12 100 1011.8
20190216090312 42 292 0.0 2.0 0.00 0.00 0.12 100 1011.7
20190216090011 42 225 0.0 1.0 0.00 0.00 0.12 100 1011.7
20190216085709 42 135 0.0 1.0 0.00 0.00 0.12 100 1011.7
20190216085408 42 103 1.0 2.0 0.00 0.00 0.12 100 1011.7
20190216085107 42 90 1.0 2.0 0.00 0.00 0.12 100 1011.7
20190216084806 42 135 1.0 2.0 0.00 0.00 0.12 99 1011.7
20190216084204 43 45 1.0 1.0 0.00 0.00 0.12 100 1011.8
20190216083903 43 45 0.0 1.0 0.00 0.00 0.12 99 1011.8
20190216083602 43 45 1.0 2.0 0.00 0.00 0.12 99 1011.8
20190216083301 43 45 1.0 2.0 0.00 0.00 0.12 99 1011.9
20190216082959 43 45 1.0 1.0 0.00 0.00 0.12 100 1011.9
20190216082658 43 180 0.0 0.0 0.00 0.00 0.12 100 1011.7
20190216082357 43 180 0.0 1.0 0.00 0.00 0.12 100 1011.8
20190216081454 44 45 0.0 2.0 0.00 0.00 0.12 100 1011.8
20190216081153 44 335 1.0 2.0 0.00 0.00 0.12 100 1011.8
20190216080852 44 337 1.0 3.0 0.00 0.00 0.12 99 1011.8
20190216080551 44 315 1.0 2.0 0.00 0.00 0.12 99 1011.7
20190216080249 44 339 1.0 2.0 0.00 0.00 0.12 99 1011.7
20190216075948 44 326 0.0 2.0 0.00 0.00 0.12 99 1011.8
20190216075647 44 0 1.0 2.0 0.00 0.00 0.12 99 1011.7
20190216075346 45 0 1.0 2.0 0.00 0.00 0.12 99 1011.6
20190216075045 45 315 1.0 2.0 0.00 0.00 0.12 99 1011.6
20190216074744 45 321 1.0 2.0 0.00 0.00 0.12 99 1011.6
20190216074516 45 315 3.0 5.0 0.00 0.00 0.12 99 1011.8
20190216074443 45 315 3.0 5.0 0.00 0.00 0.12 99 1011.8
20190216074142 45 310 4.0 5.0 0.00 0.00 0.12 99 1011.8
20190216073841 45 270 3.0 3.0 0.00 0.00 0.12 99 1011.6
20190216073238 45 270 1.0 2.0 0.00 0.00 0.12 99 1011.4
20190216072939 45 270 1.0 2.0 0.00 0.00 0.12 99 1011.4
20190216072937 45 270 1.0 2.0 0.00 0.00 0.12 99 1011.4
20190216072636 46 270 1.0 3.0 0.00 0.00 0.12 100 1011.4
20190216072335 46 270 2.0 3.0 0.00 0.00 0.12 100 1011.4
20190216072034 46 270 3.0 4.0 0.00 0.00 0.12 99 1011.5
20190216071733 46 270 3.0 4.0 0.00 0.00 0.12 99 1011.4
20190216071432 46 315 4.0 4.0 0.00 0.00 0.12 99 1011.4
20190216070829 46 270 3.0 3.0 0.00 0.00 0.12 100 1011.3
20190216070528 46 315 3.0 3.0 0.00 0.00 0.12 99 1011.4
20190216070230 46 315 3.0 3.0 0.00 0.00 0.12 99 1011.3
20190216065926 46 315 2.0 3.0 0.00 0.00 0.12 99 1011.4
20190216065625 46 270 3.0 4.0 0.00 0.00 0.12 99 1011.4
20190216065023 46 315 2.0 3.0 0.00 0.00 0.12 99 1011.6
20190216064421 45 315 0.0 3.0 0.00 0.00 0.12 99 1011.5
20190216064121 45 0 3.0 3.0 0.00 0.00 0.12 99 1011.5
20190216063818 45 0 0.0 1.0 0.00 0.00 0.12 99 1011.5
20190216063517 45 12 1.0 1.0 0.00 0.00 0.12 99 1011.4
20190216063216 45 225 1.0 1.0 0.00 0.00 0.12 99 1011.6
20190216062915 45 225 0.0 0.0 0.00 0.00 0.12 98 1011.6
20190216062614 45 225 0.0 1.0 0.00 0.00 0.12 99 1011.8
20190216062313 45 225 1.0 2.0 0.00 0.00 0.12 99 1011.8
20190216062012 45 225 1.0 2.0 0.00 0.00 0.12 98 1011.6
20190216060807 46 225 0.0 2.0 0.00 0.00 0.12 99 1011.8
20190216060506 46 238 0.0 2.0 0.00 0.00 0.12 98 1011.8
20190216060205 46 180 0.0 3.0 0.00 0.00 0.12 99 1011.7
20190216055904 46 180 3.0 3.0 0.00 0.00 0.12 99 1011.7
20190216055302 46 180 0.0 3.0 0.00 0.00 0.12 99 1011.6
20190216055001 46 166 1.0 2.0 0.00 0.00 0.12 99 1011.5
20190216054700 46 225 0.0 2.0 0.00 0.00 0.12 98 1011.4
20190216054358 46 263 2.0 2.0 0.00 0.00 0.12 99 1011.5
20190216053455 46 225 0.0 4.0 0.00 0.00 0.12 98 1011.3
20190216053154 46 243 2.0 4.0 0.00 0.00 0.12 99 1011.3
20190216052853 46 270 1.0 3.0 0.00 0.00 0.12 98 1011.5
20190216052251 46 218 2.0 4.0 0.00 0.00 0.12 98 1011.4
20190216051950 46 247 1.0 6.0 0.00 0.00 0.12 98 1011.4
20190216051649 46 252 4.0 6.0 0.00 0.00 0.12 98 1011.4
20190216051347 47 243 3.0 5.0 0.00 0.00 0.12 98 1011.4
20190216050745 47 256 5.0 7.0 0.00 0.00 0.12 98 1011.3
20190216050444 47 235 4.0 12.0 0.00 0.00 0.11 98 1011.2
20190216045843 47 327 1.0 4.0 0.00 0.00 0.11 99 1011.2
20190216045541 47 256 2.0 4.0 0.00 0.00 0.11 99 1011.2
20190216045241 47 240 3.0 6.0 0.00 0.00 0.09 99 1011.3
20190216044939 47 261 3.0 6.0 0.00 0.00 0.09 99 1011.5
20190216044336 47 270 4.0 4.0 0.00 0.00 0.08 99 1011.4
20190216044035 47 229 2.0 4.0 0.00 0.00 0.08 99 1011.3
20190216043734 47 242 3.0 4.0 0.00 0.00 0.08 98 1011.3
20190216043433 47 278 2.0 4.0 0.00 0.00 0.08 98 1011.3
20190216043132 47 234 2.0 4.0 0.00 0.00 0.08 98 1011.2
20190216042831 47 211 2.0 4.0 0.00 0.00 0.08 98 1011.1
20190216042530 47 180 1.0 6.0 0.00 0.00 0.08 97 1011.1
20190216042229 47 200 1.0 3.0 0.00 0.00 0.08 97 1011.2
20190216041928 47 225 2.0 3.0 0.00 0.00 0.08 97 1011.2
20190216041325 47 270 0.0 5.0 0.00 0.00 0.08 98 1011.3
20190216041024 47 216 2.0 5.0 0.00 0.00 0.08 98 1011.2
20190216040723 47 254 3.0 3.0 0.00 0.00 0.08 98 1011.1
20190216040422 47 225 0.0 4.0 0.00 0.00 0.08 98 1011.2
20190216040121 48 198 1.0 2.0 0.00 0.00 0.08 98 1011.2
20190216035820 48 247 1.0 5.0 0.00 0.00 0.08 98 1011.3
20190216035519 48 238 1.0 3.0 0.00 0.00 0.08 98 1011.5
20190216035217 48 216 2.0 4.0 0.00 0.00 0.08 98 1011.6
20190216034916 48 229 3.0 5.0 0.00 0.00 0.08 98 1011.6
20190216034314 48 234 2.0 4.0 0.00 0.00 0.08 98 1011.7
20190216034013 48 180 0.0 5.0 0.00 0.00 0.08 98 1011.6
20190216033712 48 202 4.0 4.0 0.00 0.00 0.08 98 1011.3
20190216033411 48 234 2.0 7.0 0.00 0.00 0.08 99 1011.3
20190216033110 48 180 7.0 7.0 0.00 0.00 0.08 98 1011.3
20190216032809 48 184 2.0 5.0 0.00 0.00 0.08 98 1011.4
20190216032508 48 184 2.0 8.0 0.00 0.00 0.08 98 1011.3
20190216032207 48 211 2.0 4.0 0.00 0.00 0.08 98 1011.4
20190216031905 48 207 4.0 4.0 0.00 0.00 0.08 99 1011.5
20190216031604 48 195 4.0 4.0 0.00 0.00 0.08 98 1011.4
20190216031303 48 162 2.0 6.0 0.00 0.00 0.08 98 1011.5
20190216030701 48 205 4.0 4.0 0.00 0.00 0.08 98 1011.4
20190216030400 48 209 5.0 6.0 0.00 0.00 0.08 98 1011.5
20190216030059 48 220 2.0 5.0 0.00 0.00 0.08 98 1011.3
20190216025758 48 227 1.0 5.0 0.00 0.00 0.08 98 1011.4
20190216025457 48 225 1.0 3.0 0.00 0.00 0.08 98 1011.2
20190216025155 48 265 1.0 3.0 0.00 0.00 0.08 98 1011.3
20190216024854 48 240 3.0 3.0 0.00 0.00 0.08 98 1011.3
20190216024252 48 184 4.0 9.0 0.00 0.00 0.08 98 1011.2
20190216023952 48 193 4.0 5.0 0.00 0.00 0.08 98 1011.2
20190216023349 48 207 1.0 6.0 0.00 0.00 0.08 98 1011.1
20190216023048 48 180 1.0 5.0 0.00 0.00 0.08 98 1011.0
20190216022746 48 182 3.0 5.0 0.00 0.00 0.08 97 1011.1
20190216022445 48 198 1.0 5.0 0.00 0.00 0.08 98 1011.0
20190216022146 48 218 3.0 4.0 0.00 0.00 0.08 98 1011.0
20190216021938 48 243 4.0 4.0 0.00 0.00 0.08 97 1010.9
20190216021843 48 243 4.0 4.0 0.00 0.00 0.08 97 1010.9
20190216021542 48 225 1.0 4.0 0.00 0.00 0.08 97 1010.8
20190216021243 48 204 4.0 7.0 0.00 0.00 0.08 98 1010.8
20190216020940 49 216 2.0 7.0 0.00 0.00 0.08 98 1010.8
20190216020639 49 229 2.0 6.0 0.00 0.00 0.08 98 1010.7
20190216020507 49 213 3.0 6.0 0.00 0.00 0.08 97 1010.8
20190216020338 49 213 3.0 6.0 0.00 0.00 0.08 97 1010.8
20190216020037 49 240 4.0 7.0 0.00 0.00 0.08 97 1010.8
20190216015429 49 227 3.0 6.0 0.00 0.00 0.08 97 1010.7
20190216014827 49 252 3.0 7.0 0.00 0.00 0.08 97 1010.7
20190216014526 49 112 2.0 6.0 0.00 0.00 0.08 97 1010.6
20190216013924 49 208 2.0 7.0 0.00 0.00 0.08 97 1010.8
20190216013623 49 227 3.0 9.0 0.00 0.00 0.08 97 1010.7
20190216013322 49 256 7.0 8.0 0.00 0.00 0.07 97 1010.6
20190216012719 49 270 1.0 5.0 0.00 0.00 0.07 97 1010.6
20190216012418 49 222 4.0 6.0 0.00 0.00 0.07 97 1010.3
20190216012117 50 245 6.0 6.0 0.00 0.00 0.07 97 1010.1
20190216011515 50 227 2.0 8.0 0.00 0.00 0.07 97 1010.2
20190216011214 50 240 4.0 7.0 0.00 0.00 0.07 97 1010.3
20190216010913 50 240 6.0 7.0 0.00 0.00 0.07 97 1010.4
20190216010612 50 208 3.0 5.0 0.00 0.00 0.07 97 1010.4
20190216010009 50 261 7.0 7.0 0.00 0.00 0.07 97 1010.4
20190216005708 50 222 6.0 8.0 0.00 0.00 0.07 96 1010.3
20190216005106 50 245 6.0 10.0 0.00 0.00 0.07 96 1010.3
20190216004805 50 247 5.0 9.0 0.00 0.00 0.07 96 1010.3
20190216004504 50 249 9.0 9.0 0.00 0.00 0.07 96 1010.2
20190216004203 50 258 6.0 8.0 0.00 0.00 0.07 96 1010.2
20190216003902 50 207 3.0 10.0 0.00 0.00 0.07 96 1010.1
20190216003601 50 207 2.0 10.0 0.00 0.00 0.07 95 1009.8
20190216003259 51 189 6.0 9.0 0.00 0.00 0.07 95 1009.8
20190216002958 51 180 7.0 12.0 0.00 0.00 0.07 95 1009.8
20190216002657 51 180 3.0 10.0 0.00 0.00 0.07 95 1010.0
20190216002356 51 177 8.0 10.0 0.00 0.00 0.06 95 1010.1
20190216002055 51 225 1.0 4.0 0.00 0.00 0.06 95 1010.1
20190216001754 51 218 1.0 3.0 0.00 0.00 0.06 95 1010.2
20190216001453 51 216 2.0 8.0 0.00 0.00 0.05 95 1010.2
20190216001152 51 218 2.0 5.0 0.00 0.00 0.05 95 1010.3
20190216000851 51 270 2.0 4.0 0.00 0.00 0.05 95 1010.4
20190216000248 51 198 1.0 7.0 0.00 0.00 0.05 95 1010.5
20190215235646 51 175 10.0 11.0 0.00 0.00 0.04 94 1010.5
20190215235044 51 180 0.0 4.0 0.00 0.00 0.04 93 1010.7
20190215234743 51 238 3.0 5.0 0.00 0.00 0.04 93 1010.8
20190215234442 51 243 3.0 5.0 0.00 0.00 0.04 94 1010.8
20190215234141 51 198 2.0 7.0 0.00 0.00 0.04 94 1010.9
20190215233840 51 180 1.0 5.0 0.00 0.00 0.03 93 1010.8
20190215233538 51 191 2.0 3.0 0.00 0.00 0.03 93 1010.9
20190215233237 52 288 2.0 4.0 0.00 0.00 0.03 93 1010.8
20190215232936 51 225 1.0 6.0 0.00 0.00 0.03 93 1010.7
20190215232635 52 193 2.0 6.0 0.00 0.00 0.03 93 1010.8
20190215232334 52 225 0.0 4.0 0.00 0.00 0.03 93 1010.8
20190215232033 52 220 1.0 4.0 0.00 0.00 0.03 92 1010.6
20190215231431 52 225 1.0 4.0 0.00 0.00 0.03 91 1010.6
20190215231130 52 243 4.0 4.0 0.00 0.00 0.03 91 1010.8
20190215230829 52 172 2.0 4.0 0.00 0.00 0.03 91 1010.8
20190215230527 52 206 1.0 5.0 0.00 0.00 0.03 90 1010.9
20190215225925 52 229 2.0 5.0 0.00 0.00 0.03 89 1011.0
20190215225624 53 227 4.0 5.0 0.00 0.00 0.03 89 1011.1
20190215225323 53 272 2.0 6.0 0.00 0.00 0.03 88 1011.3
20190215225022 53 270 4.0 4.0 0.00 0.00 0.02 88 1011.2
20190215224420 54 250 2.0 5.0 0.00 0.00 0.01 87 1011.3
20190215224119 54 315 1.0 5.0 0.00 0.00 0.01 87 1011.1
20190215223817 54 186 2.0 7.0 0.00 0.00 0.01 86 1011.1
20190215223516 55 187 4.0 6.0 0.00 0.00 0.01 88 1010.8
20190215223215 55 227 2.0 5.0 0.00 0.00 0.01 88 1010.9
20190215222914 55 254 1.0 6.0 0.00 0.00 0.01 88 1010.8
20190215222613 55 211 3.0 9.0 0.00 0.00 0.01 87 1011.1
20190215222312 55 195 5.0 9.0 0.00 0.00 0.01 88 1011.0
20190215222011 55 184 5.0 7.0 0.00 0.00 0.01 88 1011.0
20190215221409 55 258 3.0 8.0 0.00 0.00 0.01 88 1011.2
20190215221108 55 265 2.0 7.0 0.00 0.00 0.01 88 1011.2
20190215220500 55 205 3.0 10.0 0.00 0.00 0.01 89 1011.3
20190215220159 54 216 3.0 7.0 0.00 0.00 0.01 89 1011.3
20190215215900 54 204 3.0 10.0 0.00 0.00 0.01 89 1011.5
20190215215557 54 135 2.0 6.0 0.00 0.00 0.01 90 1011.5
20190215215256 54 211 4.0 6.0 0.00 0.00 0.01 90 1011.5
20190215214654 54 184 9.0 14.0 0.00 0.00 0.01 90 1011.3
20190215214353 54 222 6.0 11.0 0.00 0.00 0.01 89 1011.3
20190215214051 53 182 7.0 11.0 0.00 0.00 0.01 90 1011.5
20190215213750 53 168 6.0 16.0 0.00 0.00 0.01 89 1011.4
20190215213449 54 180 12.0 16.0 0.00 0.00 0.01 90 1011.2
20190215213148 54 193 4.0 8.0 0.00 0.00 0.01 90 1011.4
20190215212847 54 175 5.0 11.0 0.00 0.00 0.01 89 1011.5
20190215212546 54 186 4.0 9.0 0.00 0.00 0.01 88 1011.5
20190215212245 55 175 6.0 8.0 0.00 0.00 0.01 88 1011.4
20190215211944 55 175 7.0 10.0 0.00 0.00 0.01 88 1011.6
20190215211643 56 186 11.0 12.0 0.00 0.00 0.01 88 1011.6
20190215211042 56 234 8.0 8.0 0.00 0.00 0.01 88 1011.7
20190215210739 56 225 1.0 4.0 0.00 0.00 0.01 89 1011.9
20190215210132 55 225 1.0 3.0 0.00 0.00 0.01 91 1011.9
20190215205831 55 189 1.0 8.0 0.00 0.00 0.01 90 1011.9
20190215205530 55 177 5.0 8.0 0.00 0.00 0.01 91 1012.2
20190215204327 53 180 2.0 7.0 0.00 0.00 0.01 91 1012.4
20190215204026 53 175 2.0 7.0 0.00 0.00 0.01 91 1012.4
20190215203723 53 171 3.0 6.0 0.00 0.00 0.01 90 1012.5
20190215203424 53 180 1.0 7.0 0.00 0.00 0.01 90 1012.5
20190215203121 53 180 6.0 7.0 0.00 0.00 0.01 89 1012.6
20190215202822 53 180 3.0 8.0 0.00 0.00 0.01 89 1012.6
20190215202519 53 194 5.0 8.0 0.00 0.00 0.01 89 1012.7
20190215202218 53 265 4.0 8.0 0.00 0.00 0.01 89 1012.6
20190215201917 53 265 5.0 8.0 0.00 0.00 0.01 88 1012.9
20190215201616 53 270 7.0 7.0 0.00 0.00 0.01 88 1012.9
20190215201314 53 272 7.0 10.0 0.00 0.00 0.01 87 1013.1
20190215201013 54 274 9.0 10.0 0.00 0.00 0.01 87 1013.2
20190215200712 54 270 5.0 6.0 0.00 0.00 0.01 85 1013.4
20190215200110 55 265 5.0 7.0 0.00 0.00 0.01 83 1013.4
20190215195809 56 238 7.0 7.0 0.00 0.00 0.01 83 1013.2
20190215195508 56 213 3.0 5.0 0.00 0.00 0.01 81 1013.2
20190215195207 57 207 1.0 4.0 0.00 0.00 0.01 80 1013.1
20190215194606 59 218 4.0 7.0 0.00 0.00 0.00 78 1013.1
20190215194303 59 235 5.0 6.0 0.00 0.00 0.00 78 1013.1
20190215194002 60 220 2.0 6.0 0.00 0.00 0.00 78 1013.0
20190215193701 60 247 1.0 5.0 0.00 0.00 0.00 78 1013.0
20190215193400 60 242 3.0 4.0 0.00 0.00 0.00 79 1012.8
20190215193101 61 225 2.0 6.0 0.00 0.00 0.00 79 1012.8
20190215192759 61 234 4.0 6.0 0.00 0.00 0.00 80 1012.9
20190215192457 61 218 3.0 4.0 0.00 0.00 0.00 81 1013.0
20190215192156 61 236 4.0 6.0 0.00 0.00 0.00 82 1013.1
20190215191553 61 225 1.0 4.0 0.00 0.00 0.00 84 1013.2
20190215191252 60 200 3.0 6.0 0.00 0.00 0.00 85 1013.1
20190215190951 60 238 4.0 6.0 0.00 0.00 0.00 85 1013.0
20190215190650 60 180 1.0 3.0 0.00 0.00 0.00 87 1013.0
20190215190349 60 180 2.0 4.0 0.00 0.00 0.00 87 1013.2
20190215190048 60 247 3.0 4.0 0.00 0.00 0.00 88 1013.1
20190215185747 60 252 3.0 4.0 0.00 0.00 0.00 88 1013.2
20190215185144 60 180 1.0 4.0 0.00 0.00 0.00 89 1013.3
20190215184843 59 263 3.0 5.0 0.00 0.00 0.00 90 1013.4
20190215184542 59 270 1.0 4.0 0.00 0.00 0.00 91 1013.2
20190215184241 59 180 3.0 3.0 0.00 0.00 0.00 92 1013.4
20190215183639 58 236 3.0 5.0 0.00 0.00 0.00 92 1013.0
20190215183338 58 175 3.0 5.0 0.00 0.00 0.00 93 1013.1
20190215183037 58 218 1.0 4.0 0.00 0.00 0.00 93 1013.3
20190215182736 57 218 1.0 4.0 0.00 0.00 0.00 93 1013.0
20190215182434 57 180 0.0 5.0 0.00 0.00 0.00 94 1013.1
20190215182133 57 180 2.0 4.0 0.00 0.00 0.00 94 1013.0
20190215181832 56 180 2.0 4.0 0.00 0.00 0.00 95 1012.9
20190215181531 56 180 1.0 4.0 0.00 0.00 0.00 96 1012.7
20190215181231 56 180 1.0 2.0 0.00 0.00 0.00 96 1012.9
20190215180929 55 247 0.0 5.0 0.00 0.00 0.00 96 1012.9
20190215180628 55 171 4.0 6.0 0.00 0.00 0.00 96 1012.8
20190215180328 55 166 5.0 5.0 0.00 0.00 0.00 97 1012.9
20190215180026 55 191 5.0 5.0 0.00 0.00 0.00 97 1012.9
20190215175726 55 180 0.0 1.0 0.00 0.00 0.00 97 1013.0
20190215175423 55 270 0.0 2.0 0.00 0.00 0.00 97 1013.1
20190215174824 55 270 4.0 5.0 0.00 0.00 0.00 97 1013.1
20190215174522 56 270 2.0 2.0 0.00 0.00 0.00 97 1013.1
20190215174220 56 225 2.0 5.0 0.00 0.00 0.00 97 1013.1
20190215173920 56 270 3.0 4.0 0.00 0.00 0.00 99 1013.1
20190215173619 56 270 3.0 4.0 0.00 0.00 0.00 100 1013.0
20190215173016 55 225 1.0 2.0 0.00 0.00 0.00 100 1013.0
20190215172714 55 270 1.0 1.0 0.00 0.00 0.00 100 1013.1
20190215172111 53 135 0.0 1.0 0.00 0.00 0.00 100 1012.8
20190215171812 53 135 0.0 1.0 0.00 0.00 0.00 100 1012.9